TimeEDT,TemperatureF,Dew PointF,Humidity,Sea Level PressureIn,VisibilityMPH,Wind Direction,Wind SpeedMPH,Gust SpeedMPH,PrecipitationIn,Events,Conditions,WindDirDegrees,DateUTC
12:39 AM,73.4,69.8,88,29.75,5.0,Calm,Calm,-,0.00,Rain-Thunderstorm,Light Thunderstorms and Rain,0,2013-06-13 04:39:00
12:51 AM,73.9,70.0,87,29.73,5.0,South,4.6,-,0.01,Rain-Thunderstorm,Light Thunderstorms and Rain,180,2013-06-13 04:51:00
1:51 AM,73.0,68.0,84,29.69,5.0,SSW,17.3,23.0,0.07,Rain-Thunderstorm,Light Thunderstorms and Rain,210,2013-06-13 05:51:00
2:51 AM,69.1,64.9,87,29.64,3.0,South,15.0,27.6,0.14,Rain-Thunderstorm,Thunderstorms and Rain,180,2013-06-13 06:51:00
3:51 AM,68.0,64.0,87,29.61,8.0,South,6.9,-,0.24,Thunderstorm,Thunderstorm,170,2013-06-13 07:51:00
4:14 AM,68.0,64.4,88,29.66,1.0,NW,27.6,44.9,0.08,Rain-Thunderstorm,Heavy Thunderstorms and Rain,310,2013-06-13 08:14:00
4:31 AM,64.4,62.6,94,29.66,4.0,WNW,17.3,38.0,0.42,Rain-Thunderstorm,Thunderstorms and Rain,300,2013-06-13 08:31:00
4:51 AM,66.0,63.0,90,29.64,7.0,Calm,Calm,-,0.47,Rain-Thunderstorm,Light Thunderstorms and Rain,0,2013-06-13 08:51:00
5:13 AM,64.4,62.6,94,29.62,7.0,SSE,6.9,-,0.03,Rain,Light Rain,160,2013-06-13 09:13:00
5:51 AM,64.9,63.0,93,29.60,7.0,South,5.8,-,0.06,Rain,Light Rain,180,2013-06-13 09:51:00
6:51 AM,66.0,62.1,87,29.55,10.0,SSW,8.1,-,0.01,,Mostly Cloudy,210,2013-06-13 10:51:00
7:51 AM,66.0,62.1,87,29.59,10.0,West,9.2,-,N/A,,Mostly Cloudy,260,2013-06-13 11:51:00
8:51 AM,66.9,62.1,84,29.59,10.0,WSW,13.8,21.9,N/A,,Overcast,240,2013-06-13 12:51:00
9:13 AM,68.0,62.6,83,29.59,10.0,WSW,12.7,19.6,N/A,,Mostly Cloudy,240,2013-06-13 13:13:00
9:51 AM,69.1,62.1,78,29.58,10.0,West,11.5,21.9,N/A,,Overcast,260,2013-06-13 13:51:00
10:51 AM,71.1,63.0,75,29.59,10.0,West,10.4,-,N/A,,Overcast,260,2013-06-13 14:51:00
11:51 AM,71.1,61.0,70,29.61,10.0,WNW,20.7,-,N/A,,Overcast,300,2013-06-13 15:51:00
12:51 PM,68.0,59.0,73,29.63,10.0,NW,16.1,-,0.00,Rain,Light Rain,320,2013-06-13 16:51:00
1:51 PM,66.0,59.0,78,29.64,10.0,NW,16.1,-,0.00,,Overcast,320,2013-06-13 17:51:00
2:51 PM,64.9,57.9,78,29.67,10.0,NW,19.6,27.6,N/A,,Overcast,320,2013-06-13 18:51:00
3:35 PM,64.4,57.2,77,29.68,10.0,NNW,15.0,23.0,0.00,,Overcast,330,2013-06-13 19:35:00
3:51 PM,64.9,57.9,78,29.69,8.0,NNW,15.0,26.5,0.00,,Overcast,330,2013-06-13 19:51:00
4:14 PM,66.2,57.2,73,29.68,10.0,NW,17.3,-,N/A,,Overcast,320,2013-06-13 20:14:00
4:29 PM,66.2,57.2,73,29.69,10.0,NW,15.0,-,N/A,,Overcast,320,2013-06-13 20:29:00
4:51 PM,66.0,57.9,75,29.70,10.0,NW,18.4,25.3,N/A,,Overcast,320,2013-06-13 20:51:00
5:51 PM,66.9,57.0,70,29.70,9.0,NW,18.4,25.3,N/A,,Mostly Cloudy,320,2013-06-13 21:51:00
6:51 PM,66.9,57.0,70,29.72,10.0,NW,11.5,-,0.00,Rain,Light Rain,320,2013-06-13 22:51:00
7:09 PM,66.2,59.0,78,29.73,5.0,NW,15.0,20.7,0.00,Rain,Light Rain,310,2013-06-13 23:09:00
7:51 PM,64.0,60.1,87,29.76,8.0,NW,12.7,-,0.01,,Overcast,310,2013-06-13 23:51:00
8:51 PM,63.0,57.9,84,29.78,9.0,NNW,16.1,-,0.00,Rain,Light Rain,330,2013-06-14 00:51:00
9:51 PM,62.1,55.0,78,29.79,10.0,NNW,15.0,-,0.00,,Mostly Cloudy,330,2013-06-14 01:51:00
10:51 PM,61.0,53.1,75,29.82,10.0,NW,10.4,-,N/A,,Mostly Cloudy,320,2013-06-14 02:51:00
11:51 PM,60.1,53.1,78,29.82,10.0,NW,12.7,-,N/A,,Mostly Cloudy,320,2013-06-14 03:51:00